Regional Weather Roundup
Issued by NWS

Home | Current Version | Previous Version | Graphics & Text | Print | Product List | Glossary On
Versions: 1 2 3 4 5 6 7 8 9 10 11 12 13 14 15 16 17 18 19 20 21 22 23 24 25 26 27 28 29 30 31 32 33 34 35 36 37 38 39 40 41 42 43 44 45 46 47 48 49 50
000
ASUS43 KBIS 300402
RWRND

NORTH DAKOTA REGIONAL WEATHER ROUNDUP
NATIONAL WEATHER SERVICE BISMARCK ND
1100 PM CDT THU SEP 29 2016

NOTE: "FAIR" INDICATES FEW OR NO CLOUDS BELOW 12,000 FEET WITH NO
SIGNIFICANT WEATHER AND/OR OBSTRUCTIONS TO VISIBILITY.


NDZ001>003-009>011-017-300500-
NORTHWEST NORTH DAKOTA

CITY           SKY/WX    TMP DP  RH WIND       PRES   REMARKS
WILLISTON      PTCLDY    63  43  48 SE9       30.13S
MINOT          CLEAR     53  46  77 E9        30.23S
MINOT AFB      CLEAR     51  46  81 SE9       30.22S
$$

NDZ018>021-031>035-040>046-300500-
SOUTHWEST NORTH DAKOTA

CITY           SKY/WX    TMP DP  RH WIND       PRES   REMARKS
BISMARCK       CLEAR     55  45  68 SE12      30.25F
DICKINSON      PTCLDY    56  41  57 SE17G24   30.15S
GARRISON         N/A     55  46  71 SE15      30.22S
HETTINGER ARPT MOCLDY    59  42  53 SE15G23   30.18F
$$

NDZ004>008-012>016-024-026-027-054-300500-
NORTHEAST NORTH DAKOTA

CITY           SKY/WX    TMP DP  RH WIND       PRES   REMARKS
GRAND FORKS    CLEAR     52  45  77 SE9       30.37R
GRND FRKS AFB  CLEAR     52  45  78 S8        30.36S
DEVILS LAKE    CLEAR     55  47  74 SE12      30.33S
$$

NDZ022-023-025-028>030-036>039-047>053-300500-
SOUTHEAST NORTH DAKOTA

CITY           SKY/WX    TMP DP  RH WIND       PRES   REMARKS
FARGO          CLEAR     52  45  77 E8        30.38S
JAMESTOWN      CLEAR     52  45  77 SE9       30.32S
$$





USA.gov is the U.S. government's official web portal to all federal, state and local government web resources and services.